CST,Max TemperatureF,Mean TemperatureF,Min TemperatureF,Max Dew PointF,MeanDew PointF,Min DewpointF,Max Humidity, Mean Humidity, Min Humidity, Max Sea Level PressureIn, Mean Sea Level PressureIn, Min Sea Level PressureIn, Max VisibilityMiles, Mean VisibilityMiles, Min VisibilityMiles, Max Wind SpeedMPH, Mean Wind SpeedMPH, Max Gust SpeedMPH,PrecipitationIn, CloudCover, Events, WindDirDegrees
2013-1-1,27,18,9,17,12,4,85,79,66,30.34,30.26,30.16,10,10,9,13,7,,0.00,1,,317
2013-1-2,33,21,8,20,10,1,84,68,51,30.43,30.33,30.28,10,10,10,18,9,28,0.00,0,,325
2013-1-3,32,21,10,19,10,3,80,67,53,30.54,30.46,30.42,10,10,10,13,7,15,0.00,1,,287
2013-1-4,35,24,12,26,17,7,92,78,63,30.41,30.31,30.14,10,10,8,21,13,23,0.00,2,,229
2013-1-5,42,26,10,23,14,5,91,66,40,30.44,30.21,30.04,10,8,0,23,10,30,0.00,1,Fog,291
2013-1-6,44,31,17,27,19,10,77,61,45,30.46,30.34,30.19,10,10,10,25,12,30,0.00,0,,233
2013-1-7,48,38,27,28,24,21,75,59,42,30.18,30.06,29.94,10,10,10,22,12,26,0.00,0,,217
2013-1-8,53,39,25,30,26,23,85,62,38,30.22,29.99,29.88,10,10,9,18,11,24,0.00,0,,262
2013-1-9,51,40,29,34,26,20,78,53,28,30.40,30.27,30.13,10,9,6,18,12,23,0.03,3,Rain,17
2013-1-10,48,42,35,40,35,32,92,82,71,30.14,29.90,29.67,10,6,0,22,11,26,0.14,6,Fog-Rain,297
2013-1-11,57,41,24,34,22,6,76,48,19,29.83,29.64,29.51,10,10,7,48,23,61,0.00,0,,235
2013-1-12,28,23,18,14,11,9,77,62,46,30.12,29.99,29.84,10,10,4,16,10,20,T,2,Snow,34
2013-1-13,27,20,13,14,11,7,80,65,50,30.28,30.20,30.08,10,10,3,14,5,16,T,3,Snow,110
2013-1-14,29,22,14,18,14,9,84,65,46,30.34,30.23,30.12,10,7,1,17,8,20,T,7,Snow,155
2013-1-15,33,26,19,18,14,8,84,60,35,30.26,30.21,30.13,10,10,9,12,6,14,T,4,,243
2013-1-16,53,37,20,24,20,12,73,51,29,30.36,30.24,30.19,10,10,10,21,10,28,0.00,2,,320
2013-1-17,53,40,26,25,21,19,75,51,26,30.56,30.45,30.38,10,10,10,13,7,16,0.00,0,,238
2013-1-18,59,43,27,25,22,20,81,51,21,30.38,30.21,30.09,10,10,10,26,12,32,0.00,0,,216
2013-1-19,63,44,25,21,14,6,81,46,11,30.30,30.17,30.05,10,10,10,31,10,37,0.00,0,,345
2013-1-20,60,42,24,21,16,7,74,43,12,30.29,30.19,30.08,10,10,10,30,14,36,0.00,0,,325
2013-1-21,45,34,23,25,22,19,88,67,45,30.39,30.29,30.18,10,6,0,18,9,22,0.00,4,Fog,225
2013-1-22,70,46,22,27,20,11,84,48,11,30.18,30.13,30.02,10,10,10,14,7,16,0.00,0,,210
2013-1-23,72,49,25,22,14,3,75,41,7,30.21,30.14,30.07,10,10,10,17,9,21,0.00,0,,281
2013-1-24,50,38,25,27,24,19,92,66,39,30.24,30.12,30.01,10,8,2,15,7,18,0.00,2,,70
2013-1-25,57,45,33,26,23,20,70,48,25,30.26,30.15,30.04,10,10,8,21,8,26,0.00,0,,85
2013-1-26,63,47,31,42,31,22,72,52,32,30.11,29.97,29.83,10,10,9,22,11,25,T,2,,186
2013-1-27,71,56,41,40,35,30,83,54,24,29.79,29.74,29.66,10,10,10,35,19,41,0.00,0,,221
2013-1-28,68,53,38,36,30,25,79,52,24,29.78,29.70,29.62,10,9,2,38,20,46,0.00,0,,220
2013-1-29,49,37,25,32,28,17,89,68,46,29.87,29.62,29.52,10,6,0,36,14,45,T,6,Fog-Snow,5
2013-1-30,45,31,17,20,13,3,74,46,18,30.11,30.02,29.90,10,10,10,20,12,25,0.00,0,,272
2013-1-31,58,42,26,21,17,10,69,43,16,30.24,30.12,30.01,10,10,10,21,11,26,0.00,0,,316